| time (UTC) | temp F | wind direction | speed MPH | gust MPH | rain 1hr in | rain 24hr in | rain mn in | humidity % | barometer mb |
| 20260506144537 | 50 | 18 | 2.0 | 10.0 | 0.00 | 0.00 | 0.00 | 76 | 1017.0 |
| 20260506143046 | 50 | 28 | 1.0 | 8.0 | 0.00 | 0.00 | 0.00 | 78 | 1016.7 |
| 20260506141536 | 50 | 26 | 1.0 | 10.0 | 0.00 | 0.00 | 0.00 | 79 | 1016.8 |
| 20260506140031 | 49 | 107 | 2.0 | 9.0 | 0.00 | 0.00 | 0.00 | 79 | 1017.0 |
| 20260506134530 | 49 | 341 | 2.0 | 9.0 | 0.00 | 0.00 | 0.00 | 80 | 1017.0 |
| 20260506133027 | 48 | 69 | 0.0 | 8.0 | 0.00 | 0.00 | 0.00 | 80 | 1017.2 |
| 20260506131526 | 48 | 32 | 0.0 | 10.0 | 0.00 | 0.00 | 0.00 | 80 | 1017.1 |
| 20260506130026 | 48 | 29 | 2.0 | 8.0 | 0.00 | 0.00 | 0.00 | 80 | 1016.6 |
| 20260506124518 | 48 | 40 | 1.0 | 6.0 | 0.00 | 0.00 | 0.00 | 79 | 1016.4 |
| 20260506123016 | 48 | 65 | 2.0 | 8.0 | 0.00 | 0.00 | 0.00 | 79 | 1015.8 |
| 20260506121513 | 48 | 286 | 1.0 | 5.0 | 0.00 | 0.00 | 0.00 | 79 | 1015.7 |
| 20260506120013 | 48 | 39 | 0.0 | 6.0 | 0.00 | 0.00 | 0.00 | 78 | 1015.8 |
| 20260506114511 | 48 | 30 | 1.0 | 6.0 | 0.00 | 0.00 | 0.00 | 78 | 1015.4 |
| 20260506113008 | 48 | 11 | 0.0 | 6.0 | 0.00 | 0.00 | 0.00 | 77 | 1015.0 |
| 20260506111508 | 48 | 31 | 2.0 | 9.0 | 0.00 | 0.00 | 0.00 | 77 | 1015.2 |
| 20260506110006 | 48 | 28 | 1.0 | 8.0 | 0.00 | 0.00 | 0.00 | 77 | 1015.1 |
| 20260506104503 | 48 | 25 | 2.0 | 7.0 | 0.00 | 0.00 | 0.00 | 76 | 1015.4 |
| 20260506103003 | 48 | 60 | 1.0 | 6.0 | 0.00 | 0.00 | 0.00 | 76 | 1015.1 |
| 20260506101502 | 48 | 28 | 2.0 | 8.0 | 0.00 | 0.00 | 0.00 | 75 | 1015.1 |
| 20260506100100 | 48 | 35 | 0.0 | 5.0 | 0.00 | 0.00 | 0.00 | 75 | 1015.0 |
| 20260506094622 | 49 | 5 | 2.0 | 10.0 | 0.00 | 0.00 | 0.00 | 75 | 1014.9 |
| 20260506093057 | 49 | 22 | 2.0 | 8.0 | 0.00 | 0.00 | 0.00 | 75 | 1014.8 |
| 20260506091554 | 49 | 31 | 2.0 | 10.0 | 0.00 | 0.00 | 0.00 | 75 | 1014.5 |
| 20260506090051 | 49 | 31 | 1.0 | 6.0 | 0.00 | 0.00 | 0.00 | 75 | 1014.1 |
| 20260506084550 | 49 | 329 | 2.0 | 9.0 | 0.00 | 0.00 | 0.00 | 75 | 1014.2 |
| 20260506083049 | 49 | 355 | 1.0 | 8.0 | 0.00 | 0.00 | 0.00 | 75 | 1013.9 |
| 20260506081546 | 49 | 21 | 2.0 | 8.0 | 0.00 | 0.00 | 0.00 | 75 | 1013.1 |
| 20260506073045 | 49 | 36 | 1.0 | 8.0 | 0.00 | 0.00 | 0.00 | 74 | 1012.0 |
| 20260506071539 | 49 | 40 | 2.0 | 7.0 | 0.00 | 0.00 | 0.00 | 74 | 1012.4 |
| 20260506061536 | 49 | 87 | 0.0 | 4.0 | 0.00 | 0.00 | 0.00 | 76 | 1012.7 |
| 20260506044533 | 49 | 41 | 0.0 | 4.0 | 0.00 | 0.00 | 0.00 | 82 | 1012.6 |
| 20260506043022 | 49 | 34 | 1.0 | 6.0 | 0.00 | 0.00 | 0.00 | 81 | 1012.5 |
| 20260506041520 | 49 | 74 | 1.0 | 9.0 | 0.00 | 0.00 | 0.00 | 81 | 1012.5 |
| 20260506040042 | 49 | 52 | 2.0 | 9.0 | 0.00 | 0.00 | 0.00 | 83 | 1012.4 |
| 20260506034516 | 49 | 94 | 1.0 | 5.0 | 0.00 | 0.00 | 0.00 | 83 | 1012.3 |
| 20260506033015 | 49 | 67 | 0.0 | 7.0 | 0.00 | 0.00 | 0.00 | 83 | 1012.2 |
| 20260506031529 | 49 | 100 | 1.0 | 8.0 | 0.00 | 0.00 | 0.00 | 83 | 1011.9 |
| 20260506030013 | 49 | 59 | 1.0 | 6.0 | 0.00 | 0.00 | 0.00 | 82 | 1011.8 |
| 20260506024517 | 49 | 96 | 2.0 | 9.0 | 0.00 | 0.00 | 0.00 | 82 | 1011.3 |
| 20260506023010 | 49 | 26 | 2.0 | 9.0 | 0.00 | 0.00 | 0.00 | 82 | 1010.9 |
| 20260506021509 | 50 | 42 | 4.0 | 11.0 | 0.00 | 0.00 | 0.00 | 82 | 1011.1 |
| 20260506020003 | 50 | 34 | 2.0 | 8.0 | 0.00 | 0.00 | 0.00 | 81 | 1010.8 |
| 20260506014501 | 50 | 34 | 3.0 | 10.0 | 0.00 | 0.00 | 0.00 | 81 | 1010.5 |
| 20260506013059 | 51 | 24 | 3.0 | 11.0 | 0.00 | 0.00 | 0.00 | 79 | 1010.6 |
| 20260506011606 | 51 | 57 | 2.0 | 8.0 | 0.00 | 0.00 | 0.00 | 77 | 1010.3 |
| 20260506010056 | 51 | 30 | 2.0 | 9.0 | 0.00 | 0.00 | 0.00 | 76 | 1009.9 |
| 20260506004550 | 52 | 65 | 3.0 | 11.0 | 0.00 | 0.00 | 0.00 | 76 | 1009.5 |
| 20260506003047 | 52 | 47 | 2.0 | 6.0 | 0.00 | 0.00 | 0.00 | 77 | 1009.0 |
| 20260506001546 | 52 | 140 | 3.0 | 8.0 | 0.00 | 0.00 | 0.00 | 76 | 1009.1 |
| 20260506000044 | 52 | 349 | 2.0 | 11.0 | 0.00 | 0.00 | 0.00 | 76 | 1008.9 |
| 20260505234547 | 53 | 195 | 2.0 | 8.0 | 0.00 | 0.00 | 0.00 | 76 | 1008.9 |
| 20260505233042 | 53 | 64 | 2.0 | 11.0 | 0.00 | 0.00 | 0.00 | 76 | 1008.9 |
| 20260505231546 | 53 | 360 | 3.0 | 11.0 | 0.00 | 0.00 | 0.00 | 76 | 1009.0 |
| 20260505230035 | 54 | 36 | 2.0 | 5.0 | 0.00 | 0.00 | 0.00 | 76 | 1008.7 |
| 20260505224534 | 54 | 32 | 3.0 | 11.0 | 0.00 | 0.00 | 0.00 | 76 | 1008.5 |
| 20260505223036 | 54 | 36 | 2.0 | 6.0 | 0.00 | 0.00 | 0.00 | 76 | 1008.5 |
| 20260505221531 | 54 | 43 | 2.0 | 9.0 | 0.00 | 0.00 | 0.00 | 77 | 1008.4 |
| 20260505220035 | 55 | 62 | 3.0 | 10.0 | 0.00 | 0.00 | 0.00 | 77 | 1007.9 |
| 20260505214535 | 55 | 18 | 4.0 | 10.0 | 0.00 | 0.00 | 0.00 | 77 | 1007.3 |
| 20260505213026 | 55 | 22 | 2.0 | 8.0 | 0.00 | 0.00 | 0.00 | 78 | 1007.6 |
| 20260505211525 | 55 | 80 | 1.0 | 10.0 | 0.00 | 0.00 | 0.00 | 80 | 1007.8 |
| 20260505210026 | 55 | 9 | 3.0 | 9.0 | 0.00 | 0.00 | 0.00 | 80 | 1007.2 |
| 20260505204518 | 55 | 18 | 3.0 | 9.0 | 0.00 | 0.00 | 0.00 | 81 | 1007.2 |
| 20260505203016 | 56 | 40 | 3.0 | 10.0 | 0.00 | 0.00 | 0.00 | 80 | 1006.8 |
| 20260505201513 | 56 | 38 | 2.0 | 11.0 | 0.00 | 0.00 | 0.00 | 81 | 1007.1 |
| 20260505200019 | 57 | 28 | 2.0 | 9.0 | 0.00 | 0.00 | 0.00 | 80 | 1006.8 |
| 20260505194509 | 57 | 25 | 3.0 | 10.0 | 0.00 | 0.00 | 0.00 | 80 | 1006.6 |
| 20260505193008 | 57 | 38 | 2.0 | 8.0 | 0.00 | 0.00 | 0.00 | 81 | 1006.4 |
| 20260505191506 | 58 | 360 | 4.0 | 9.0 | 0.00 | 0.00 | 0.00 | 80 | 1006.5 |
| 20260505190004 | 58 | 38 | 3.0 | 13.0 | 0.00 | 0.00 | 0.00 | 81 | 1005.4 |
| 20260505184502 | 58 | 16 | 3.0 | 12.0 | 0.00 | 0.00 | 0.00 | 80 | 1006.2 |
| 20260505183059 | 58 | 33 | 2.0 | 10.0 | 0.00 | 0.00 | 0.00 | 81 | 1005.8 |
| 20260505181559 | 59 | 10 | 3.0 | 10.0 | 0.00 | 0.00 | 0.00 | 81 | 1005.7 |
| 20260505180053 | 59 | 55 | 4.0 | 13.0 | 0.00 | 0.00 | 0.00 | 81 | 1004.9 |
| 20260505174555 | 60 | 76 | 3.0 | 10.0 | 0.00 | 0.00 | 0.00 | 81 | 1004.7 |
| 20260505173047 | 60 | 355 | 4.0 | 16.0 | 0.00 | 0.00 | 0.00 | 80 | 1004.7 |
| 20260505171544 | 63 | 39 | 4.0 | 19.0 | 0.00 | 0.00 | 0.00 | 78 | 1004.4 |
| 20260505170040 | 65 | 360 | 3.0 | 12.0 | 0.00 | 0.00 | 0.00 | 78 | 1003.6 |
| 20260505164535 | 68 | 302 | 3.0 | 14.0 | 0.00 | 0.00 | 0.00 | 76 | 1003.2 |
| 20260505163031 | 73 | 197 | 2.0 | 8.0 | 0.00 | 0.00 | 0.00 | 70 | 1002.7 |
| 20260505161529 | 75 | 360 | 0.0 | 1.0 | 0.00 | 0.00 | 0.00 | 74 | 1002.0 |
| 20260505153020 | 74 | 163 | 0.0 | 2.0 | 0.00 | 0.00 | 0.00 | 75 | 1001.3 |
| 20260505151520 | 74 | 163 | 0.0 | 0.0 | 0.00 | 0.00 | 0.00 | 75 | 1001.2 |